User: anonymous   Login
Location: Deer Lodge Site
(39.6809°N, 119.9392°W)
Time: 20:31:30
(UTC-07:00)
Language:

CZ-4C R/B - Orbit

View from above orbital plane
View from above orbital plane
View from above satellite
View from above satellite

Ground track
Ground track

The orbit data is extracted from the following two-line orbital elements,

1 36416U 10009D   16151.80511571 -.00000071 +00000-0 +18859-4 0  9996
2 36416 063.4421 209.1273 0349560 357.4151 002.5069 13.69497616311840
Epoch (UTC): 30 May 2016 19:19:21
Eccentricity: 0.0349560
inclination: 63.4421°
perigee height: 743 km
apogee height: 1259 km
right ascension of ascending node: 209.1273°
argument of perigee: 357.4151°
revolutions per day: 13.69497616
mean anomaly at epoch: 2.5069°
orbit number at epoch: 31184

The dashed part of the orbit path shows where the satellite is in the earth's shadow,  

DLR